When you browse on this site, cookies collect data to enhance your experience and personalize the content and advertising you see.
Visit our Privacy Policy to learn more. By continuing to use the site, you agree to this use of cookies and data.
  • In Germany
  • List of Countries
  • For 7 days
  • Water Temperature
  • Weather Map
  • Weather Widgets
  • user-avatar
    Login

    Hourly Weather Innsbruck

    Today, 9 December, Monday

    Time Temperature Precipitation Wind Pressure Humidity
    00:00 -6°C° 0 mm 2 mps 588 mmHg 65%
    01:00 -6°C° 0 mm 2 mps 588 mmHg 62%
    02:00 -6°C° 0 mm 2 mps 588 mmHg 63%
    03:00 -3°C° 0 mm 1 mps 588 mmHg 65%
    04:00 -3°C° 0 mm 1 mps 587 mmHg 66%
    05:00 -4°C° 0.3 mm 1 mps 587 mmHg 71%
    06:00 -4°C° 0.3 mm 1 mps 587 mmHg 77%
    07:00 -4°C° 0.3 mm 1 mps 587 mmHg 83%
    08:00 -4°C° 0.4 mm 1 mps 587 mmHg 85%
    09:00 -4°C° 0.4 mm 1 mps 587 mmHg 88%
    10:00 -3°C° 0.4 mm 1 mps 587 mmHg 90%
    11:00 -3°C° 0.2 mm 1 mps 587 mmHg 88%
    12:00 -2°C° 0.2 mm 1 mps 586 mmHg 86%
    13:00 -2°C° 0.2 mm 1 mps 586 mmHg 84%
    14:00 -3°C° 0.1 mm 1 mps 586 mmHg 85%
    15:00 -4°C° 0.1 mm 1 mps 585 mmHg 87%
    16:00 -6°C° 0.1 mm 0 mps 584 mmHg 88%
    17:00 -6°C° 0.1 mm 1 mps 585 mmHg 87%
    18:00 -6°C° 0.1 mm 1 mps 585 mmHg 85%
    19:00 -7°C° 0.1 mm 1 mps 586 mmHg 83%
    20:00 -7°C° 0.3 mm 1 mps 586 mmHg 86%
    21:00 -7°C° 0.3 mm 1 mps 586 mmHg 90%
    22:00 -8°C° 0.3 mm 2 mps 587 mmHg 93%
    23:00 -8°C° 0.6 mm 2 mps 587 mmHg 94%

    Tomorrow, 10 December, Tuesday

    Time Temperature Precipitation Wind Pressure Humidity
    00:00 -8°C° 0.6 mm 2 mps 588 mmHg 95%
    01:00 -8°C° 0.6 mm 2 mps 588 mmHg 95%
    02:00 -8°C° 0.7 mm 2 mps 589 mmHg 96%
    03:00 -8°C° 0.7 mm 2 mps 590 mmHg 96%
    04:00 -9°C° 0.7 mm 3 mps 591 mmHg 96%
    05:00 -9°C° 1.1 mm 3 mps 591 mmHg 96%
    06:00 -9°C° 1.1 mm 3 mps 592 mmHg 96%
    07:00 -9°C° 1.1 mm 3 mps 593 mmHg 95%
    08:00 -10°C° 0.4 mm 3 mps 594 mmHg 94%
    09:00 -10°C° 0.4 mm 3 mps 594 mmHg 93%
    10:00 -10°C° 0.4 mm 3 mps 594 mmHg 91%
    11:00 -10°C° 0.1 mm 3 mps 595 mmHg 88%
    12:00 -8°C° 0.1 mm 2 mps 595 mmHg 85%
    13:00 -8°C° 0.1 mm 2 mps 595 mmHg 81%
    14:00 -10°C° 0 mm 2 mps 594 mmHg 83%
    15:00 -10°C° 0 mm 1 mps 594 mmHg 86%
    16:00 -11°C° 0 mm 1 mps 593 mmHg 88%
    17:00 -14°C° 0 mm 2 mps 593 mmHg 79%
    18:00 -14°C° 0 mm 2 mps 593 mmHg 69%
    19:00 -15°C° 0 mm 2 mps 593 mmHg 60%
    20:00 -14°C° 0 mm 2 mps 593 mmHg 54%
    21:00 -14°C° 0 mm 2 mps 593 mmHg 48%
    22:00 -13°C° 0 mm 2 mps 593 mmHg 43%
    23:00 -13°C° 0 mm 2 mps 593 mmHg 40%

    Day after tomorrow, 11 December, Wednesday

    Time Temperature Precipitation Wind Pressure Humidity
    00:00 -12°C° 0 mm 2 mps 593 mmHg 37%
    01:00 -12°C° 0 mm 2 mps 592 mmHg 35%
    02:00 -10°C° 0 mm 2 mps 592 mmHg 34%
    03:00 -9°C° 0 mm 2 mps 592 mmHg 33%
    04:00 -9°C° 0 mm 2 mps 591 mmHg 32%
    05:00 -8°C° 0 mm 1 mps 591 mmHg 32%
    06:00 -7°C° 0 mm 1 mps 591 mmHg 31%
    07:00 -7°C° 0 mm 1 mps 591 mmHg 31%
    08:00 -4°C° 0 mm 1 mps 591 mmHg 35%
    09:00 -3°C° 0 mm 1 mps 591 mmHg 40%
    10:00 -1°C° 0 mm 1 mps 592 mmHg 44%
    11:00 0°C° 0 mm 1 mps 591 mmHg 51%
    12:00 0°C° 0 mm 1 mps 591 mmHg 57%
    13:00 +1°C° 0 mm 1 mps 591 mmHg 63%
    14:00 0°C° 0 mm 1 mps 590 mmHg 59%
    15:00 -2°C° 0 mm 1 mps 589 mmHg 55%
    16:00 -4°C° 0 mm 0 mps 587 mmHg 50%
    17:00 -4°C° 0 mm 1 mps 587 mmHg 50%
    18:00 -4°C° 0 mm 1 mps 587 mmHg 50%
    19:00 -6°C° 0 mm 1 mps 587 mmHg 50%
    20:00 -6°C° 0 mm 1 mps 587 mmHg 57%
    21:00 -7°C° 0 mm 1 mps 587 mmHg 64%
    22:00 -7°C° 0 mm 1 mps 587 mmHg 71%
    23:00 -7°C° 0.4 mm 1 mps 586 mmHg 78%

    12 December, Thursday

    Time Temperature Precipitation Wind Pressure Humidity
    00:00 -7°C° 0.4 mm 1 mps 586 mmHg 84%
    01:00 -7°C° 0.4 mm 1 mps 586 mmHg 91%
    02:00 -7°C° 1.1 mm 1 mps 586 mmHg 92%
    03:00 -7°C° 1.1 mm 1 mps 586 mmHg 94%
    04:00 -8°C° 1.1 mm 2 mps 585 mmHg 96%
    05:00 -9°C° 0.6 mm 2 mps 586 mmHg 95%
    06:00 -9°C° 0.6 mm 2 mps 586 mmHg 94%
    07:00 -9°C° 0.6 mm 2 mps 586 mmHg 94%
    08:00 -9°C° 0.2 mm 2 mps 586 mmHg 90%
    09:00 -8°C° 0.2 mm 1 mps 586 mmHg 87%
    10:00 -8°C° 0.2 mm 1 mps 587 mmHg 83%
    11:00 -8°C° 0 mm 1 mps 587 mmHg 79%
    12:00 -7°C° 0 mm 1 mps 587 mmHg 75%
    13:00 -7°C° 0 mm 1 mps 587 mmHg 71%
    14:00 -8°C° 0 mm 1 mps 586 mmHg 74%
    15:00 -10°C° 0 mm 1 mps 585 mmHg 77%
    16:00 -11°C° 0 mm 0 mps 584 mmHg 81%
    17:00 -12°C° 0 mm 1 mps 584 mmHg 77%
    18:00 -14°C° 0 mm 2 mps 584 mmHg 73%
    19:00 -16°C° 0 mm 3 mps 583 mmHg 70%
    20:00 -16°C° 0 mm 3 mps 583 mmHg 71%
    21:00 -17°C° 0 mm 4 mps 582 mmHg 73%
    22:00 -17°C° 0 mm 4 mps 582 mmHg 75%
    23:00 -17°C° 0 mm 5 mps 581 mmHg 77%

    13 December, Friday

    Time Temperature Precipitation Wind Pressure Humidity
    00:00 -15°C° 0 mm 5 mps 581 mmHg 79%
    01:00 -14°C° 0 mm 5 mps 580 mmHg 81%
    02:00 -15°C° 0.2 mm 6 mps 579 mmHg 82%
    03:00 -15°C° 0.2 mm 6 mps 579 mmHg 82%
    04:00 -15°C° 0.2 mm 6 mps 578 mmHg 82%
    05:00 -15°C° 0 mm 6 mps 577 mmHg 82%
    06:00 -15°C° 0 mm 6 mps 577 mmHg 83%
    07:00 -15°C° 0 mm 6 mps 576 mmHg 83%
    08:00 -15°C° 0.1 mm 6 mps 575 mmHg 82%
    09:00 -15°C° 0.1 mm 6 mps 575 mmHg 82%
    10:00 -14°C° 0.1 mm 6 mps 575 mmHg 81%
    11:00 -11°C° 0.6 mm 4 mps 575 mmHg 85%
    12:00 -10°C° 0.6 mm 3 mps 575 mmHg 89%
    13:00 -7°C° 0.6 mm 1 mps 576 mmHg 93%
    14:00 -8°C° 0.5 mm 2 mps 575 mmHg 93%
    15:00 -9°C° 0.5 mm 2 mps 575 mmHg 92%
    16:00 -9°C° 0.5 mm 2 mps 575 mmHg 92%
    17:00 -10°C° 0 mm 2 mps 575 mmHg 88%
    18:00 -12°C° 0 mm 2 mps 575 mmHg 83%
    19:00 -14°C° 0 mm 3 mps 575 mmHg 79%
    20:00 -14°C° 0 mm 3 mps 575 mmHg 79%
    21:00 -13°C° 0 mm 3 mps 576 mmHg 78%
    22:00 -13°C° 0 mm 3 mps 577 mmHg 78%
    23:00 -12°C° 0 mm 2 mps 577 mmHg 77%

    14 December, Saturday

    Time Temperature Precipitation Wind Pressure Humidity
    00:00 -13°C° 0 mm 2 mps 577 mmHg 77%
    01:00 -13°C° 0 mm 2 mps 577 mmHg 77%
    02:00 -13°C° 0 mm 2 mps 577 mmHg 75%
    03:00 -13°C° 0 mm 2 mps 577 mmHg 73%
    04:00 -14°C° 0 mm 2 mps 577 mmHg 71%
    05:00 -13°C° 0.1 mm 2 mps 578 mmHg 74%
    06:00 -10°C° 0.1 mm 2 mps 579 mmHg 77%
    07:00 -9°C° 0.1 mm 2 mps 580 mmHg 80%
    08:00 -9°C° 0.4 mm 2 mps 580 mmHg 83%
    09:00 -8°C° 0.4 mm 2 mps 581 mmHg 86%
    10:00 -8°C° 0.4 mm 3 mps 581 mmHg 90%
    11:00 -7°C° 1.2 mm 2 mps 581 mmHg 91%
    12:00 -6°C° 1.2 mm 2 mps 582 mmHg 92%
    13:00 -5°C° 1.2 mm 2 mps 582 mmHg 94%
    14:00 -5°C° 1.8 mm 2 mps 583 mmHg 94%
    15:00 -5°C° 1.8 mm 2 mps 583 mmHg 95%
    16:00 -3°C° 1.8 mm 1 mps 584 mmHg 96%
    17:00 -4°C° 0.3 mm 1 mps 584 mmHg 93%
    18:00 -7°C° 0.3 mm 2 mps 584 mmHg 89%
    19:00 -8°C° 0.3 mm 2 mps 584 mmHg 86%
    20:00 -8°C° 0 mm 2 mps 585 mmHg 82%
    21:00 -8°C° 0 mm 2 mps 585 mmHg 79%
    22:00 -8°C° 0 mm 2 mps 586 mmHg 76%
    23:00 -8°C° 0 mm 2 mps 586 mmHg 73%
    Show more